Change the Weather History Date:

Monday, April 21, 2014

  Actual Average (KLAS) Record (KLAS)
Temperature  
Mean Temperature 79 °F 69 °F  
Max Temperature 92 °F 80 °F 98 °F (1950)
Min Temperature 66 °F 58 °F 37 °F (1966)
Degree Days  
Heating Degree Days 0 1  
Month to date heating degree days 55  
Since 1 July heating degree days 1935  
Cooling Degree Days 14 5  
Month to date cooling degree days 70  
Year to date cooling degree days 101  
Growing Degree Days 29 (Base 50)    
Moisture  
Dew Point 31 °F    
Average Humidity 18    
Maximum Humidity 27    
Minimum Humidity 10    
Precipitation  
Precipitation 0.00 in 0.00 in 0.53 in (1957)
Month to date precipitation 0.12  
Year to date precipitation 1.86  
Snow  
Snow 0.00 in 0.00 in 0.00 in ()
Month to date snowfall 0.0  
Since 1 July snowfall 0.3  
Snow Depth -    
Sea Level Pressure  
Sea Level Pressure 29.91 in    
Wind  
Wind Speed 10 mph (SSW)    
Max Wind Speed 23 mph    
Max Gust Speed 30 mph    
Visibility 10 miles    
Events Rain    
T = Trace of Precipitation, MM = Missing Value Source: NWS Daily Summary

Daily Weather History Graph

Daily Weather History Graph

Search for Another Location

Airport or City:

Trip Planner

Search our weather history database for the weather conditions in past years. The results will help you decide how hot, cold, wet, or windy it might be!

Date:

Astronomy

Apr. 21, 2014 Rise Set
Actual Time 5:59 AM PDT 7:19 PM PDT
Civil Twilight 5:32 AM PDT 7:46 PM PDT
Nautical Twilight 5:00 AM PDT 8:18 PM PDT
Astronomical Twilight 4:27 AM PDT 8:51 PM PDT
Moon 12:50 AM PDT (4/21) 11:33 AM PDT (4/21)
Length of Visible Light 14h 13m
Length of Day
13h 19m
Waning Gibbous, 56% of the Moon is Illuminated
Apr 21
Waning Gibbous
Apr 22
Last Quarter
Apr 28
New
May 6
First Quarter
May 14
Full

Hourly Weather History & Observations

Time (PDT) Temp. Dew Point Humidity Pressure Visibility Wind Dir Wind Speed Gust Speed Precip Events Conditions
12:56 AM 72.0 °F 30.0 °F 21% 29.97 in 10.0 mi SSW 10.4 mph - 0.00 in Rain Heavy Rain
1:56 AM 68.9 °F 30.0 °F 24% 29.97 in 10.0 mi South 6.9 mph - 0.00 in Rain Heavy Rain
2:56 AM 68.9 °F 30.0 °F 24% 29.96 in 10.0 mi SW 4.6 mph - 0.00 in Rain Heavy Rain
3:56 AM 72.9 °F 32.9 °F 23% 29.96 in 10.0 mi South 8.1 mph - 0.00 in Rain Heavy Rain
4:56 AM 66.9 °F 32.0 °F 27% 29.97 in 10.0 mi SSW 5.8 mph - 0.00 in Rain Heavy Rain
5:56 AM 68.0 °F 32.9 °F 27% 29.97 in 10.0 mi West 6.9 mph - 0.00 in   Clear
6:56 AM 70.0 °F 34.0 °F 27% 29.99 in 10.0 mi WSW 11.5 mph - N/A   Clear
7:56 AM 73.9 °F 36.0 °F 25% 30.01 in 10.0 mi SW 10.4 mph - N/A   Clear
8:56 AM 77.9 °F 36.0 °F 22% 30.01 in 10.0 mi West 5.8 mph - N/A   Clear
9:56 AM 82.9 °F 36.0 °F 19% 30.00 in 10.0 mi NNE 4.6 mph - N/A   Clear
10:56 AM 84.9 °F 36.0 °F 17% 29.99 in 10.0 mi NNE 9.2 mph - N/A   Clear
11:56 AM 88.9 °F 34.9 °F 15% 29.96 in 10.0 mi SE 13.8 mph 19.6 mph N/A   Clear
12:56 PM 90.0 °F 34.0 °F 14% 29.93 in 10.0 mi SSW 9.2 mph 19.6 mph N/A   Partly Cloudy
1:56 PM 92.8 °F 30.0 °F 11% 29.89 in 10.0 mi SSE 16.1 mph 26.5 mph 0.00 in   Clear
2:56 PM 92.8 °F 30.0 °F 11% 29.86 in 10.0 mi SSW 23.0 mph 29.9 mph N/A   Clear
3:56 PM 91.9 °F 28.0 °F 10% 29.83 in 10.0 mi SSW 13.8 mph 24.2 mph N/A   Clear
4:56 PM 90.9 °F 27.1 °F 10% 29.82 in 10.0 mi SW 12.7 mph 23.0 mph 0.00 in Rain Heavy Rain
5:56 PM 88.9 °F 27.1 °F 11% 29.81 in 10.0 mi SSW 15.0 mph - 0.00 in Rain Heavy Rain
6:56 PM 86.9 °F 27.1 °F 11% 29.80 in 10.0 mi SSW 18.4 mph - 0.00 in Rain Heavy Rain
7:56 PM 83.8 °F 27.1 °F 13% 29.81 in 10.0 mi South 11.5 mph - 0.00 in Rain Heavy Rain
8:56 PM 81.0 °F 28.0 °F 14% 29.82 in 10.0 mi South 11.5 mph - 0.00 in Rain Heavy Rain
9:56 PM 79.9 °F 28.0 °F 15% 29.81 in 10.0 mi SSE 9.2 mph - 0.00 in Rain Heavy Rain
10:56 PM 79.0 °F 32.0 °F 18% 29.81 in 10.0 mi SSW 12.7 mph - 0.00 in Rain Heavy Rain
11:56 PM 77.9 °F 27.1 °F 15% 29.79 in 10.0 mi SSW 11.5 mph - 0.00 in Rain Heavy Rain